START_TIME,STEP,MOV.,P11,t_acc.,P23,t_acc.,P27,t_acc.,A4,t_acc.
1979-07-18 03:00:23.050 ,1,0,2.,4.8,0.,4.8,0.,4.8,0.,4.8
1979-07-18 03:00:27.850 ,1,0,2.,4.8,0.,4.8,0.,4.8,0.,4.8
1979-07-18 03:00:32.650 ,1,0,1.,4.8,0.,4.8,0.,4.8,0.,4.8
1979-07-18 03:00:37.450 ,1,0,0.,4.8,0.,4.8,0.,4.8,0.,4.8
1979-07-18 03:00:42.250 ,1,0,0.,4.8,0.,4.8,0.,4.8,0.,4.8
1979-07-18 03:00:47.050 ,2,0,1.,4.8,0.,4.8,0.,4.8,0.,4.8
1979-07-18 03:00:51.850 ,2,0,1.,4.8,0.,4.8,0.,4.8,0.,4.8
1979-07-18 03:00:56.650 ,2,0,1.,4.8,0.,4.8,0.,4.8,0.,4.8
1979-07-18 03:01:01.450 ,2,0,1.,4.8,0.,4.8,0.,4.8,1.,4.8
1979-07-18 03:01:06.250 ,2,0,1.,4.8,0.,4.8,0.,4.8,0.,4.8
1979-07-18 03:01:11.050 ,2,0,1.,4.8,0.,4.8,0.,4.8,0.,4.8
1979-07-18 03:01:15.850 ,2,0,0.,4.8,0.,4.8,0.,4.8,0.,4.8
1979-07-18 03:01:20.650 ,2,0,0.,4.8,0.,4.8,0.,4.8,0.,4.8
1979-07-18 03:01:25.450 ,2,0,0.,4.8,0.,4.8,0.,4.8,0.,4.8
1979-07-18 03:01:30.250 ,2,0,2.,4.8,0.,4.8,0.,4.8,0.,4.8
1979-07-18 03:01:35.050 ,3,0,0.,4.8,0.,4.8,0.,4.8,0.,4.8
1979-07-18 03:01:39.850 ,3,0,3.,4.8,0.,4.8,0.,4.8,0.,4.8
1979-07-18 03:01:44.650 ,3,0,0.,4.8,0.,4.8,0.,4.8,1.,4.8
1979-07-18 03:01:49.450 ,3,0,0.,4.8,0.,4.8,0.,4.8,0.,4.8
1979-07-18 03:01:54.250 ,3,0,1.,4.8,0.,4.8,0.,4.8,0.,4.8
1979-07-18 03:01:59.050 ,3,0,0.,4.8,0.,4.8,0.,4.8,0.,4.8
1979-07-18 03:02:03.850 ,3,0,2.,4.8,0.,4.8,0.,4.8,0.,4.8
1979-07-18 03:02:08.650 ,3,0,0.,4.8,0.,4.8,0.,4.8,0.,4.8
1979-07-18 03:02:13.450 ,3,0,1.,4.8,0.,4.8,0.,4.8,0.,4.8
1979-07-18 03:02:18.250 ,3,0,0.,4.8,0.,4.8,0.,4.8,0.,4.8
1979-07-18 03:02:23.050 ,4,0,0.,4.8,0.,4.8,0.,4.8,0.,4.8
1979-07-18 03:02:27.850 ,4,0,1.,4.8,0.,4.8,0.,4.8,0.,4.8
1979-07-18 03:02:32.650 ,4,0,0.,4.8,0.,4.8,0.,4.8,0.,4.8
1979-07-18 03:02:37.450 ,4,0,1.,4.8,0.,4.8,0.,4.8,0.,4.8
1979-07-18 03:02:42.250 ,4,0,0.,4.8,0.,4.8,0.,4.8,0.,4.8
1979-07-18 03:02:47.050 ,4,0,1.,4.8,0.,4.8,0.,4.8,0.,4.8
1979-07-18 03:02:51.850 ,4,0,0.,4.8,0.,4.8,0.,4.8,0.,4.8
1979-07-18 03:02:56.650 ,4,0,0.,4.8,0.,4.8,0.,4.8,0.,4.8
1979-07-18 03:03:01.450 ,4,0,0.,4.8,0.,4.8,0.,4.8,0.,4.8
1979-07-18 03:03:06.250 ,4,0,0.,4.8,0.,4.8,0.,4.8,0.,4.8
1979-07-18 03:03:11.050 ,5,0,0.,4.8,0.,4.8,0.,4.8,0.,4.8
1979-07-18 03:03:15.850 ,5,0,0.,4.8,0.,4.8,0.,4.8,0.,4.8
1979-07-18 03:03:20.650 ,5,0,1.,4.8,0.,4.8,0.,4.8,0.,4.8
1979-07-18 03:03:25.450 ,5,0,0.,4.8,0.,4.8,0.,4.8,0.,4.8
1979-07-18 03:03:30.250 ,5,0,0.,4.8,0.,4.8,0.,4.8,0.,4.8
1979-07-18 03:03:35.050 ,5,0,1.,4.8,0.,4.8,0.,4.8,0.,4.8
1979-07-18 03:03:39.850 ,5,0,2.,4.8,0.,4.8,0.,4.8,0.,4.8
1979-07-18 03:03:44.650 ,5,0,0.,4.8,0.,4.8,0.,4.8,0.,4.8
1979-07-18 03:03:49.450 ,5,0,0.,4.8,0.,4.8,0.,4.8,0.,4.8
1979-07-18 03:03:54.250 ,5,0,0.,4.8,0.,4.8,0.,4.8,1.,4.8
1979-07-18 03:03:59.050 ,6,0,0.,4.8,0.,4.8,0.,4.8,0.,4.8
1979-07-18 03:04:03.850 ,6,0,2.,4.8,0.,4.8,0.,4.8,0.,4.8
1979-07-18 03:04:08.650 ,6,0,0.,4.8,0.,4.8,0.,4.8,0.,4.8
1979-07-18 03:04:13.450 ,6,0,1.,4.8,0.,4.8,0.,4.8,0.,4.8
1979-07-18 03:04:18.250 ,6,0,0.,4.8,0.,4.8,0.,4.8,0.,4.8
1979-07-18 03:04:23.050 ,6,0,1.,4.8,0.,4.8,0.,4.8,0.,4.8
1979-07-18 03:04:27.850 ,6,0,0.,4.8,0.,4.8,0.,4.8,0.,4.8
1979-07-18 03:04:32.650 ,6,0,0.,4.8,0.,4.8,0.,4.8,0.,4.8
1979-07-18 03:04:37.450 ,6,0,0.,4.8,0.,4.8,0.,4.8,0.,4.8
1979-07-18 03:04:42.250 ,6,0,0.,4.8,0.,4.8,0.,4.8,0.,4.8
1979-07-18 03:04:47.050 ,7,0,1.,4.8,0.,4.8,0.,4.8,0.,4.8
1979-07-18 03:04:51.850 ,7,0,0.,4.8,0.,4.8,0.,4.8,0.,4.8
1979-07-18 03:04:56.650 ,7,0,1.,4.8,0.,4.8,0.,4.8,0.,4.8
1979-07-18 03:05:01.450 ,7,0,0.,4.8,0.,4.8,0.,4.8,0.,4.8
1979-07-18 03:05:06.250 ,7,0,1.,4.8,0.,4.8,0.,4.8,0.,4.8
1979-07-18 03:05:11.050 ,7,0,1.,4.8,0.,4.8,0.,4.8,0.,4.8
1979-07-18 03:05:15.850 ,7,0,0.,4.8,0.,4.8,0.,4.8,0.,4.8
1979-07-18 03:05:20.650 ,7,0,0.,4.8,0.,4.8,0.,4.8,0.,4.8
1979-07-18 03:05:25.450 ,7,0,1.,4.8,0.,4.8,0.,4.8,0.,4.8
1979-07-18 03:05:30.250 ,7,0,1.,4.8,0.,4.8,0.,4.8,0.,4.8
1979-07-18 03:05:35.050 ,7,0,1.,4.8,0.,4.8,0.,4.8,0.,4.8
1979-07-18 03:05:39.850 ,7,0,0.,4.8,0.,4.8,0.,4.8,0.,4.8
1979-07-18 03:05:44.650 ,7,0,0.,4.8,0.,4.8,0.,4.8,0.,4.8
1979-07-18 03:05:49.450 ,7,0,0.,4.8,0.,4.8,0.,4.8,0.,4.8
1979-07-18 03:05:54.250 ,7,0,0.,4.8,0.,4.8,0.,4.8,0.,4.8
1979-07-18 03:05:59.050 ,7,0,0.,4.8,0.,4.8,0.,4.8,0.,4.8
1979-07-18 03:06:03.850 ,7,0,0.,4.8,0.,4.8,0.,4.8,0.,4.8
1979-07-18 03:06:08.650 ,7,0,0.,4.8,0.,4.8,0.,4.8,0.,4.8
1979-07-18 03:06:13.450 ,7,0,0.,4.8,0.,4.8,0.,4.8,0.,4.8
1979-07-18 03:06:18.250 ,7,0,0.,4.8,0.,4.8,0.,4.8,0.,4.8
1979-07-18 03:06:23.050 ,6,0,0.,4.8,0.,4.8,0.,4.8,0.,4.8
1979-07-18 03:06:27.850 ,6,0,0.,4.8,0.,4.8,0.,4.8,0.,4.8
1979-07-18 03:06:32.650 ,6,0,2.,4.8,0.,4.8,0.,4.8,0.,4.8
1979-07-18 03:06:37.450 ,6,0,0.,4.8,0.,4.8,0.,4.8,0.,4.8
1979-07-18 03:06:42.250 ,6,0,1.,4.8,0.,4.8,0.,4.8,0.,4.8
1979-07-18 03:06:47.050 ,6,0,0.,4.8,0.,4.8,0.,4.8,0.,4.8
1979-07-18 03:06:51.850 ,6,0,0.,4.8,0.,4.8,0.,4.8,1.,4.8
1979-07-18 03:06:56.650 ,6,0,0.,4.8,0.,4.8,0.,4.8,0.,4.8
1979-07-18 03:07:01.450 ,6,0,0.,4.8,0.,4.8,0.,4.8,0.,4.8
1979-07-18 03:07:06.250 ,6,0,2.,4.8,0.,4.8,0.,4.8,0.,4.8
1979-07-18 03:07:11.050 ,5,0,1.,4.8,0.,4.8,0.,4.8,0.,4.8
1979-07-18 03:07:15.850 ,5,0,0.,4.8,0.,4.8,0.,4.8,0.,4.8
1979-07-18 03:07:20.650 ,5,0,2.,4.8,0.,4.8,0.,4.8,0.,4.8
1979-07-18 03:07:25.450 ,5,0,0.,4.8,0.,4.8,0.,4.8,0.,4.8
1979-07-18 03:07:30.250 ,5,0,0.,4.8,0.,4.8,0.,4.8,0.,4.8
1979-07-18 03:07:35.050 ,5,0,0.,4.8,0.,4.8,0.,4.8,0.,4.8
1979-07-18 03:07:39.850 ,5,0,1.,4.8,0.,4.8,0.,4.8,0.,4.8
1979-07-18 03:07:44.650 ,5,0,1.,4.8,0.,4.8,0.,4.8,0.,4.8
1979-07-18 03:07:49.450 ,5,0,0.,4.8,0.,4.8,0.,4.8,0.,4.8
1979-07-18 03:07:54.250 ,5,0,0.,4.8,0.,4.8,0.,4.8,0.,4.8
1979-07-18 03:07:59.050 ,4,0,0.,4.8,0.,4.8,0.,4.8,0.,4.8
1979-07-18 03:08:03.850 ,4,0,0.,4.8,0.,4.8,0.,4.8,0.,4.8
1979-07-18 03:08:08.650 ,4,0,0.,4.8,0.,4.8,0.,4.8,0.,4.8
1979-07-18 03:08:13.450 ,4,0,0.,4.8,0.,4.8,0.,4.8,0.,4.8
1979-07-18 03:08:18.250 ,4,0,0.,4.8,0.,4.8,0.,4.8,0.,4.8
1979-07-18 03:08:23.050 ,4,0,1.,4.8,0.,4.8,0.,4.8,0.,4.8
1979-07-18 03:08:27.850 ,4,0,0.,4.8,0.,4.8,0.,4.8,1.,4.8
1979-07-18 03:08:32.650 ,4,0,0.,4.8,0.,4.8,0.,4.8,0.,4.8
1979-07-18 03:08:37.450 ,4,0,0.,4.8,0.,4.8,0.,4.8,0.,4.8
1979-07-18 03:08:42.250 ,4,0,0.,4.8,0.,4.8,0.,4.8,1.,4.8
1979-07-18 03:08:47.050 ,3,0,4.,4.8,0.,4.8,0.,4.8,0.,4.8
1979-07-18 03:08:51.850 ,3,0,1.,4.8,0.,4.8,0.,4.8,0.,4.8
1979-07-18 03:08:56.650 ,3,0,0.,4.8,0.,4.8,0.,4.8,1.,4.8
1979-07-18 03:09:01.450 ,3,0,2.,4.8,0.,4.8,0.,4.8,0.,4.8
1979-07-18 03:09:06.250 ,3,0,0.,4.8,0.,4.8,0.,4.8,0.,4.8
1979-07-18 03:09:11.050 ,3,0,1.,4.8,0.,4.8,0.,4.8,0.,4.8
1979-07-18 03:09:15.850 ,3,0,0.,4.8,0.,4.8,0.,4.8,0.,4.8
1979-07-18 03:09:20.650 ,3,0,0.,4.8,0.,4.8,0.,4.8,0.,4.8
1979-07-18 03:09:25.450 ,3,0,0.,4.8,0.,4.8,0.,4.8,0.,4.8
1979-07-18 03:09:30.250 ,3,0,1.,4.8,0.,4.8,0.,4.8,0.,4.8
1979-07-18 03:09:35.050 ,2,0,2.,4.8,0.,4.8,0.,4.8,0.,4.8
1979-07-18 03:09:39.850 ,2,0,2.,4.8,0.,4.8,0.,4.8,0.,4.8
1979-07-18 03:09:44.650 ,2,0,2.,4.8,0.,4.8,0.,4.8,0.,4.8
1979-07-18 03:09:49.450 ,2,0,1.,4.8,0.,4.8,0.,4.8,1.,4.8
1979-07-18 03:09:54.250 ,2,0,0.,4.8,0.,4.8,0.,4.8,0.,4.8
1979-07-18 03:09:59.050 ,2,0,0.,4.8,0.,4.8,0.,4.8,0.,4.8
1979-07-18 03:10:03.850 ,2,0,0.,4.8,0.,4.8,0.,4.8,0.,4.8
1979-07-18 03:10:08.650 ,2,0,0.,4.8,0.,4.8,0.,4.8,0.,4.8
1979-07-18 03:10:13.450 ,2,0,1.,4.8,0.,4.8,0.,4.8,0.,4.8
1979-07-18 03:10:18.250 ,2,0,0.,4.8,0.,4.8,0.,4.8,0.,4.8
1979-07-18 03:10:23.050 ,1,0,0.,4.8,0.,4.8,0.,4.8,0.,4.8
1979-07-18 03:10:27.850 ,1,0,2.,4.8,0.,4.8,0.,4.8,0.,4.8
1979-07-18 03:10:32.650 ,1,0,1.,4.8,0.,4.8,0.,4.8,0.,4.8
1979-07-18 03:10:37.450 ,1,0,1.,4.8,0.,4.8,0.,4.8,0.,4.8
1979-07-18 03:10:42.250 ,1,0,0.,4.8,0.,4.8,0.,4.8,0.,4.8
1979-07-18 03:10:47.050 ,1,0,1.,4.8,0.,4.8,0.,4.8,0.,4.8
1979-07-18 03:10:51.850 ,1,0,1.,4.8,0.,4.8,0.,4.8,0.,4.8
1979-07-18 03:10:56.650 ,1,0,0.,4.8,0.,4.8,0.,4.8,0.,4.8
1979-07-18 03:11:01.450 ,1,0,1.,4.8,0.,4.8,0.,4.8,0.,4.8
1979-07-18 03:11:06.250 ,1,0,0.,4.8,0.,4.8,0.,4.8,0.,4.8
1979-07-18 03:11:11.050 ,0,0,2.,4.8,0.,4.8,0.,4.8,0.,4.8
1979-07-18 03:11:15.850 ,0,0,2.,4.8,0.,4.8,0.,4.8,0.,4.8
1979-07-18 03:11:20.650 ,0,0,2.,4.8,0.,4.8,0.,4.8,0.,4.8
1979-07-18 03:11:25.450 ,0,0,2.,4.8,0.,4.8,0.,4.8,0.,4.8
1979-07-18 03:11:30.250 ,0,0,0.,4.8,0.,4.8,0.,4.8,0.,4.8
1979-07-18 03:11:35.050 ,0,0,0.,4.8,0.,4.8,0.,4.8,0.,4.8
1979-07-18 03:11:39.850 ,0,0,0.,4.8,0.,4.8,0.,4.8,0.,4.8
1979-07-18 03:11:44.650 ,0,0,1.,4.8,0.,4.8,0.,4.8,0.,4.8
1979-07-18 03:11:49.450 ,0,0,0.,4.8,0.,4.8,0.,4.8,0.,4.8
1979-07-18 03:11:54.250 ,0,0,0.,4.8,0.,4.8,0.,4.8,0.,4.8
1979-07-18 03:11:59.050 ,0,0,0.,4.8,0.,4.8,0.,4.8,0.,4.8
1979-07-18 03:12:03.850 ,0,0,0.,4.8,0.,4.8,0.,4.8,0.,4.8
1979-07-18 03:12:08.650 ,0,0,0.,4.8,0.,4.8,0.,4.8,0.,4.8
1979-07-18 03:12:13.450 ,0,0,2.,4.8,0.,4.8,0.,4.8,0.,4.8
1979-07-18 03:12:18.250 ,0,0,0.,4.8,0.,4.8,0.,4.8,0.,4.8
1979-07-18 03:12:23.050 ,0,0,0.,4.8,0.,4.8,0.,4.8,0.,4.8
1979-07-18 03:12:27.850 ,0,0,1.,4.8,0.,4.8,0.,4.8,0.,4.8
1979-07-18 03:12:32.650 ,0,0,1.,4.8,0.,4.8,0.,4.8,0.,4.8
1979-07-18 03:12:37.450 ,0,0,1.,4.8,0.,4.8,0.,4.8,0.,4.8
1979-07-18 03:12:42.250 ,0,0,0.,4.8,0.,4.8,0.,4.8,0.,4.8
1979-07-18 03:12:47.050 ,1,0,0.,4.8,0.,4.8,0.,4.8,0.,4.8
1979-07-18 03:12:51.850 ,1,0,1.,4.8,0.,4.8,0.,4.8,0.,4.8
1979-07-18 03:12:56.650 ,1,0,1.,4.8,0.,4.8,0.,4.8,0.,4.8
1979-07-18 03:13:01.450 ,1,0,0.,4.8,0.,4.8,0.,4.8,0.,4.8
1979-07-18 03:13:06.250 ,1,0,0.,4.8,0.,4.8,0.,4.8,0.,4.8
1979-07-18 03:13:11.050 ,1,0,0.,4.8,0.,4.8,0.,4.8,0.,4.8
1979-07-18 03:13:15.850 ,1,0,0.,4.8,0.,4.8,0.,4.8,0.,4.8
1979-07-18 03:13:20.650 ,1,0,2.,4.8,0.,4.8,0.,4.8,0.,4.8
1979-07-18 03:13:25.450 ,1,0,1.,4.8,0.,4.8,0.,4.8,1.,4.8
1979-07-18 03:13:30.250 ,1,0,1.,4.8,0.,4.8,0.,4.8,0.,4.8
1979-07-18 03:13:35.050 ,2,0,1.,4.8,0.,4.8,0.,4.8,0.,4.8
1979-07-18 03:13:39.850 ,2,0,1.,4.8,0.,4.8,0.,4.8,0.,4.8
1979-07-18 03:13:44.650 ,2,0,1.,4.8,0.,4.8,0.,4.8,1.,4.8
1979-07-18 03:13:49.450 ,2,0,0.,4.8,0.,4.8,0.,4.8,0.,4.8
1979-07-18 03:13:54.250 ,2,0,1.,4.8,0.,4.8,0.,4.8,0.,4.8
1979-07-18 03:13:59.050 ,2,0,1.,4.8,0.,4.8,0.,4.8,0.,4.8
1979-07-18 03:14:03.850 ,2,0,0.,4.8,0.,4.8,0.,4.8,0.,4.8
1979-07-18 03:14:08.650 ,2,0,0.,4.8,0.,4.8,0.,4.8,0.,4.8
1979-07-18 03:14:13.450 ,2,0,0.,4.8,0.,4.8,0.,4.8,0.,4.8
1979-07-18 03:14:18.250 ,2,0,1.,4.8,0.,4.8,0.,4.8,0.,4.8
1979-07-18 03:14:23.050 ,3,0,1.,4.8,0.,4.8,0.,4.8,0.,4.8
1979-07-18 03:14:27.850 ,3,0,1.,4.8,0.,4.8,0.,4.8,0.,4.8
1979-07-18 03:14:32.650 ,3,0,0.,4.8,0.,4.8,0.,4.8,0.,4.8
1979-07-18 03:14:37.450 ,3,0,0.,4.8,0.,4.8,0.,4.8,0.,4.8
1979-07-18 03:14:42.250 ,3,0,2.,4.8,0.,4.8,0.,4.8,0.,4.8
1979-07-18 03:14:47.050 ,3,0,0.,4.8,0.,4.8,0.,4.8,0.,4.8
1979-07-18 03:14:51.850 ,3,0,0.,4.8,0.,4.8,0.,4.8,0.,4.8
1979-07-18 03:14:56.650 ,3,0,2.,4.8,0.,4.8,0.,4.8,0.,4.8
1979-07-18 03:15:01.450 ,3,0,0.,4.8,0.,4.8,0.,4.8,1.,4.8
1979-07-18 03:15:06.250 ,3,0,0.,4.8,0.,4.8,0.,4.8,0.,4.8
1979-07-18 03:15:11.050 ,4,0,2.,4.8,0.,4.8,0.,4.8,0.,4.8
1979-07-18 03:15:15.850 ,4,0,0.,4.8,0.,4.8,0.,4.8,0.,4.8
1979-07-18 03:15:20.650 ,4,0,1.,4.8,0.,4.8,0.,4.8,0.,4.8
1979-07-18 03:15:25.450 ,4,0,0.,4.8,0.,4.8,0.,4.8,0.,4.8
1979-07-18 03:15:30.250 ,4,0,0.,4.8,0.,4.8,0.,4.8,0.,4.8
1979-07-18 03:15:35.050 ,4,0,1.,4.8,0.,4.8,0.,4.8,0.,4.8
1979-07-18 03:15:39.850 ,4,0,1.,4.8,0.,4.8,0.,4.8,0.,4.8
1979-07-18 03:15:44.650 ,4,0,0.,4.8,0.,4.8,0.,4.8,0.,4.8
1979-07-18 03:15:49.450 ,4,0,0.,4.8,0.,4.8,0.,4.8,0.,4.8
1979-07-18 03:15:54.250 ,4,0,0.,4.8,0.,4.8,0.,4.8,0.,4.8
1979-07-18 03:15:59.050 ,5,0,0.,4.8,0.,4.8,0.,4.8,0.,4.8
1979-07-18 03:16:03.850 ,5,0,0.,4.8,0.,4.8,0.,4.8,0.,4.8
1979-07-18 03:16:08.650 ,5,0,1.,4.8,0.,4.8,0.,4.8,0.,4.8
1979-07-18 03:16:13.450 ,5,0,0.,4.8,0.,4.8,0.,4.8,0.,4.8
1979-07-18 03:16:18.250 ,5,0,1.,4.8,0.,4.8,0.,4.8,0.,4.8
1979-07-18 03:16:23.050 ,5,0,1.,4.8,0.,4.8,0.,4.8,0.,4.8
1979-07-18 03:16:27.850 ,5,0,0.,4.8,0.,4.8,0.,4.8,0.,4.8
1979-07-18 03:16:32.650 ,5,0,0.,4.8,0.,4.8,0.,4.8,0.,4.8
1979-07-18 03:16:37.450 ,5,0,0.,4.8,0.,4.8,0.,4.8,0.,4.8
1979-07-18 03:16:42.250 ,5,0,1.,4.8,0.,4.8,0.,4.8,0.,4.8
1979-07-18 03:16:47.050 ,6,0,0.,4.8,0.,4.8,0.,4.8,0.,4.8
1979-07-18 03:16:51.850 ,6,0,0.,4.8,0.,4.8,0.,4.8,0.,4.8
1979-07-18 03:16:56.650 ,6,0,1.,4.8,0.,4.8,0.,4.8,0.,4.8
1979-07-18 03:17:01.450 ,6,0,0.,4.8,0.,4.8,0.,4.8,0.,4.8
1979-07-18 03:17:06.250 ,6,0,0.,4.8,0.,4.8,0.,4.8,0.,4.8
1979-07-18 03:17:11.050 ,6,0,0.,4.8,0.,4.8,0.,4.8,0.,4.8
1979-07-18 03:17:15.850 ,6,0,2.,4.8,0.,4.8,0.,4.8,0.,4.8
1979-07-18 03:17:20.650 ,6,0,0.,4.8,0.,4.8,0.,4.8,0.,4.8
1979-07-18 03:17:25.450 ,6,0,0.,4.8,0.,4.8,0.,4.8,0.,4.8
1979-07-18 03:17:30.250 ,6,0,0.,4.8,0.,4.8,0.,4.8,0.,4.8
1979-07-18 03:17:35.050 ,7,0,2.,4.8,0.,4.8,0.,4.8,0.,4.8
1979-07-18 03:17:39.850 ,7,0,0.,4.8,0.,4.8,0.,4.8,0.,4.8
1979-07-18 03:17:44.650 ,7,0,0.,4.8,0.,4.8,0.,4.8,0.,4.8
1979-07-18 03:17:49.450 ,7,0,0.,4.8,0.,4.8,0.,4.8,0.,4.8
1979-07-18 03:17:54.250 ,7,0,0.,4.8,0.,4.8,0.,4.8,0.,4.8
1979-07-18 03:17:59.050 ,7,0,1.,4.8,0.,4.8,0.,4.8,0.,4.8
1979-07-18 03:18:03.850 ,7,0,1.,4.8,0.,4.8,0.,4.8,0.,4.8
1979-07-18 03:18:08.650 ,7,0,0.,4.8,0.,4.8,0.,4.8,0.,4.8
1979-07-18 03:18:13.450 ,7,0,1.,4.8,0.,4.8,0.,4.8,0.,4.8
1979-07-18 03:18:18.250 ,7,0,0.,4.8,0.,4.8,0.,4.8,0.,4.8
1979-07-18 03:17:59.050 ,7,0,1.,4.8,0.,4.8,0.,4.8,0.,4.8
1979-07-18 03:18:03.850 ,7,0,1.,4.8,0.,4.8,0.,4.8,0.,4.8
1979-07-18 03:18:08.650 ,7,0,0.,4.8,0.,4.8,0.,4.8,0.,4.8
1979-07-18 03:18:13.450 ,7,0,1.,4.8,0.,4.8,0.,4.8,0.,4.8
1979-07-18 03:18:18.250 ,7,0,0.,4.8,0.,4.8,0.,4.8,0.,4.8
1979-07-18 03:18:23.050 ,7,0,1.,4.8,0.,4.8,0.,4.8,0.,4.8
1979-07-18 03:18:27.850 ,7,0,2.,4.8,0.,4.8,0.,4.8,0.,4.8
1979-07-18 03:18:32.650 ,7,0,0.,4.8,0.,4.8,0.,4.8,0.,4.8
1979-07-18 03:18:37.450 ,7,0,0.,4.8,0.,4.8,0.,4.8,0.,4.8
1979-07-18 03:18:42.250 ,7,0,0.,4.8,0.,4.8,0.,4.8,0.,4.8
1979-07-18 03:18:47.050 ,7,0,0.,4.8,0.,4.8,0.,4.8,0.,4.8
1979-07-18 03:18:51.850 ,7,0,1.,4.8,0.,4.8,0.,4.8,0.,4.8
1979-07-18 03:18:56.650 ,7,0,0.,4.8,0.,4.8,0.,4.8,0.,4.8
1979-07-18 03:19:01.450 ,7,0,0.,4.8,0.,4.8,0.,4.8,0.,4.8
1979-07-18 03:19:06.250 ,7,0,0.,4.8,0.,4.8,0.,4.8,0.,4.8
1979-07-18 03:19:11.050 ,6,0,0.,4.8,0.,4.8,0.,4.8,0.,4.8
1979-07-18 03:19:15.850 ,6,0,0.,4.8,0.,4.8,0.,4.8,0.,4.8
1979-07-18 03:19:20.650 ,6,0,0.,4.8,0.,4.8,0.,4.8,0.,4.8
1979-07-18 03:19:25.450 ,6,0,0.,4.8,0.,4.8,0.,4.8,0.,4.8
1979-07-18 03:19:30.250 ,6,0,0.,4.8,0.,4.8,0.,4.8,0.,4.8
1979-07-18 03:19:35.050 ,6,0,0.,4.8,0.,4.8,0.,4.8,0.,4.8
1979-07-18 03:19:39.850 ,6,0,0.,4.8,0.,4.8,0.,4.8,0.,4.8
1979-07-18 03:19:44.650 ,6,0,0.,4.8,0.,4.8,0.,4.8,0.,4.8
1979-07-18 03:19:49.450 ,6,0,0.,4.8,0.,4.8,0.,4.8,0.,4.8
1979-07-18 03:19:54.250 ,6,0,1.,4.8,0.,4.8,0.,4.8,0.,4.8
1979-07-18 03:19:59.050 ,5,0,0.,4.8,0.,4.8,0.,4.8,0.,4.8
1979-07-18 03:20:03.850 ,5,0,0.,4.8,0.,4.8,0.,4.8,0.,4.8
1979-07-18 03:20:08.650 ,5,0,0.,4.8,0.,4.8,0.,4.8,0.,4.8
1979-07-18 03:20:13.450 ,5,0,0.,4.8,0.,4.8,0.,4.8,0.,4.8
1979-07-18 03:20:18.250 ,5,0,0.,4.8,0.,4.8,0.,4.8,0.,4.8
1979-07-18 03:20:23.050 ,5,0,4.,4.8,0.,4.8,0.,4.8,0.,4.8
1979-07-18 03:20:27.850 ,5,0,1.,4.8,0.,4.8,0.,4.8,0.,4.8
1979-07-18 03:20:32.650 ,5,0,2.,4.8,0.,4.8,0.,4.8,0.,4.8
1979-07-18 03:20:37.450 ,5,0,0.,4.8,0.,4.8,0.,4.8,0.,4.8
1979-07-18 03:20:42.250 ,5,0,0.,4.8,0.,4.8,0.,4.8,0.,4.8
1979-07-18 03:20:47.050 ,4,0,0.,4.8,0.,4.8,0.,4.8,0.,4.8
1979-07-18 03:20:51.850 ,4,0,0.,4.8,0.,4.8,0.,4.8,0.,4.8
1979-07-18 03:20:56.650 ,4,0,3.,4.8,0.,4.8,0.,4.8,0.,4.8
1979-07-18 03:21:01.450 ,4,0,0.,4.8,0.,4.8,0.,4.8,0.,4.8
1979-07-18 03:21:06.250 ,4,0,1.,4.8,0.,4.8,0.,4.8,0.,4.8
1979-07-18 03:21:11.050 ,4,0,2.,4.8,0.,4.8,0.,4.8,1.,4.8
1979-07-18 03:21:15.850 ,4,0,0.,4.8,0.,4.8,0.,4.8,0.,4.8
1979-07-18 03:21:20.650 ,4,0,0.,4.8,0.,4.8,0.,4.8,0.,4.8
1979-07-18 03:21:25.450 ,4,0,1.,4.8,0.,4.8,0.,4.8,0.,4.8
1979-07-18 03:21:30.250 ,4,0,0.,4.8,0.,4.8,0.,4.8,0.,4.8
1979-07-18 03:21:35.050 ,3,0,0.,4.8,0.,4.8,0.,4.8,0.,4.8
1979-07-18 03:21:39.850 ,3,0,2.,4.8,0.,4.8,0.,4.8,0.,4.8
1979-07-18 03:21:44.650 ,3,0,1.,4.8,0.,4.8,0.,4.8,0.,4.8
1979-07-18 03:21:49.450 ,3,0,0.,4.8,0.,4.8,0.,4.8,0.,4.8
1979-07-18 03:21:54.250 ,3,0,0.,4.8,0.,4.8,0.,4.8,0.,4.8
1979-07-18 03:21:59.050 ,3,0,0.,4.8,0.,4.8,0.,4.8,0.,4.8
1979-07-18 03:22:03.850 ,3,0,0.,4.8,0.,4.8,0.,4.8,0.,4.8
1979-07-18 03:22:08.650 ,3,0,0.,4.8,0.,4.8,0.,4.8,0.,4.8
1979-07-18 03:22:13.450 ,3,0,0.,4.8,0.,4.8,0.,4.8,1.,4.8
1979-07-18 03:22:18.250 ,3,0,0.,4.8,0.,4.8,0.,4.8,0.,4.8
1979-07-18 03:22:23.050 ,2,0,0.,4.8,0.,4.8,0.,4.8,0.,4.8
1979-07-18 03:22:27.850 ,2,0,0.,4.8,0.,4.8,0.,4.8,0.,4.8
1979-07-18 03:22:32.650 ,2,0,1.,4.8,0.,4.8,0.,4.8,0.,4.8
1979-07-18 03:22:37.450 ,2,0,0.,4.8,0.,4.8,0.,4.8,0.,4.8
1979-07-18 03:22:42.250 ,2,0,1.,4.8,0.,4.8,0.,4.8,0.,4.8
1979-07-18 03:22:47.050 ,2,0,3.,4.8,0.,4.8,0.,4.8,0.,4.8
1979-07-18 03:22:51.850 ,2,0,1.,4.8,0.,4.8,0.,4.8,0.,4.8
1979-07-18 03:22:56.650 ,2,0,0.,4.8,0.,4.8,0.,4.8,0.,4.8
1979-07-18 03:23:01.450 ,2,0,0.,4.8,0.,4.8,0.,4.8,0.,4.8
1979-07-18 03:23:06.250 ,2,0,1.,4.8,0.,4.8,0.,4.8,0.,4.8
1979-07-18 03:23:11.050 ,1,0,3.,4.8,0.,4.8,0.,4.8,0.,4.8
1979-07-18 03:23:15.850 ,1,0,0.,4.8,0.,4.8,0.,4.8,0.,4.8
1979-07-18 03:23:20.650 ,1,0,0.,4.8,0.,4.8,0.,4.8,0.,4.8
1979-07-18 03:23:25.450 ,1,0,1.,4.8,0.,4.8,0.,4.8,0.,4.8
1979-07-18 03:23:30.250 ,1,0,4.,4.8,0.,4.8,0.,4.8,0.,4.8
1979-07-18 03:23:35.050 ,1,0,1.,4.8,0.,4.8,0.,4.8,0.,4.8
1979-07-18 03:23:39.850 ,1,0,2.,4.8,0.,4.8,0.,4.8,0.,4.8
1979-07-18 03:23:44.650 ,1,0,0.,4.8,0.,4.8,0.,4.8,0.,4.8
1979-07-18 03:23:49.450 ,1,0,1.,4.8,0.,4.8,0.,4.8,0.,4.8
1979-07-18 03:23:54.250 ,1,0,0.,4.8,0.,4.8,0.,4.8,0.,4.8
1979-07-18 03:23:59.050 ,0,0,0.,4.8,0.,4.8,0.,4.8,0.,4.8
1979-07-18 03:24:03.850 ,0,0,0.,4.8,0.,4.8,0.,4.8,1.,4.8
1979-07-18 03:24:08.650 ,0,0,0.,4.8,0.,4.8,0.,4.8,0.,4.8
1979-07-18 03:24:13.450 ,0,0,2.,4.8,0.,4.8,0.,4.8,0.,4.8
1979-07-18 03:24:18.250 ,0,0,1.,4.8,0.,4.8,0.,4.8,0.,4.8
1979-07-18 03:24:23.050 ,0,0,0.,4.8,0.,4.8,0.,4.8,0.,4.8
1979-07-18 03:24:27.850 ,0,0,0.,4.8,0.,4.8,0.,4.8,0.,4.8
1979-07-18 03:24:32.650 ,0,0,0.,4.8,0.,4.8,0.,4.8,0.,4.8
1979-07-18 03:24:37.450 ,0,0,1.,4.8,0.,4.8,0.,4.8,0.,4.8
1979-07-18 03:24:42.250 ,0,0,1.,4.8,0.,4.8,0.,4.8,0.,4.8
1979-07-18 03:24:47.050 ,0,0,0.,4.8,0.,4.8,0.,4.8,0.,4.8
1979-07-18 03:24:51.850 ,0,0,0.,4.8,0.,4.8,0.,4.8,0.,4.8
1979-07-18 03:24:56.650 ,0,0,1.,4.8,0.,4.8,0.,4.8,0.,4.8
1979-07-18 03:25:01.450 ,0,0,0.,4.8,0.,4.8,0.,4.8,0.,4.8
1979-07-18 03:25:06.250 ,0,0,0.,4.8,0.,4.8,0.,4.8,0.,4.8
1979-07-18 03:25:11.050 ,0,0,1.,4.8,0.,4.8,0.,4.8,0.,4.8
1979-07-18 03:25:15.850 ,0,0,0.,4.8,0.,4.8,0.,4.8,0.,4.8
1979-07-18 03:25:20.650 ,0,0,0.,4.8,0.,4.8,0.,4.8,0.,4.8
1979-07-18 03:25:25.450 ,0,0,1.,4.8,0.,4.8,0.,4.8,0.,4.8
1979-07-18 03:25:30.250 ,0,0,0.,4.8,0.,4.8,0.,4.8,0.,4.8
1979-07-18 03:25:35.050 ,1,0,2.,4.8,0.,4.8,0.,4.8,0.,4.8
1979-07-18 03:25:39.850 ,1,0,0.,4.8,0.,4.8,0.,4.8,0.,4.8
1979-07-18 03:25:44.650 ,1,0,0.,4.8,0.,4.8,0.,4.8,0.,4.8
1979-07-18 03:25:49.450 ,1,0,1.,4.8,0.,4.8,0.,4.8,0.,4.8
1979-07-18 03:25:54.250 ,1,0,1.,4.8,0.,4.8,0.,4.8,0.,4.8
1979-07-18 03:25:59.050 ,1,0,0.,4.8,0.,4.8,0.,4.8,0.,4.8
1979-07-18 03:26:03.850 ,1,0,1.,4.8,0.,4.8,0.,4.8,0.,4.8
1979-07-18 03:26:08.650 ,1,0,0.,4.8,0.,4.8,0.,4.8,0.,4.8
1979-07-18 03:26:13.450 ,1,0,0.,4.8,0.,4.8,0.,4.8,0.,4.8
1979-07-18 03:26:18.250 ,1,0,2.,4.8,0.,4.8,0.,4.8,0.,4.8
1979-07-18 03:26:23.050 ,2,0,0.,4.8,0.,4.8,0.,4.8,0.,4.8
1979-07-18 03:26:27.850 ,2,0,0.,4.8,0.,4.8,0.,4.8,0.,4.8
1979-07-18 03:26:32.650 ,2,0,2.,4.8,0.,4.8,0.,4.8,0.,4.8
1979-07-18 03:26:37.450 ,2,0,1.,4.8,0.,4.8,0.,4.8,0.,4.8
1979-07-18 03:26:42.250 ,2,0,2.,4.8,0.,4.8,0.,4.8,0.,4.8
1979-07-18 03:26:47.050 ,2,0,0.,4.8,0.,4.8,0.,4.8,0.,4.8
1979-07-18 03:26:51.850 ,2,0,0.,4.8,0.,4.8,0.,4.8,0.,4.8
1979-07-18 03:26:56.650 ,2,0,1.,4.8,0.,4.8,0.,4.8,0.,4.8
1979-07-18 03:27:01.450 ,2,0,1.,4.8,0.,4.8,0.,4.8,0.,4.8
1979-07-18 03:27:06.250 ,2,0,0.,4.8,0.,4.8,0.,4.8,0.,4.8
1979-07-18 03:27:11.050 ,3,0,0.,4.8,0.,4.8,0.,4.8,0.,4.8
1979-07-18 03:27:15.850 ,3,0,0.,4.8,0.,4.8,0.,4.8,0.,4.8
1979-07-18 03:27:20.650 ,3,0,0.,4.8,0.,4.8,0.,4.8,0.,4.8
1979-07-18 03:27:25.450 ,3,0,1.,4.8,0.,4.8,0.,4.8,0.,4.8
1979-07-18 03:27:30.250 ,3,0,0.,4.8,0.,4.8,0.,4.8,0.,4.8
1979-07-18 03:27:35.050 ,3,0,1.,4.8,0.,4.8,0.,4.8,0.,4.8
1979-07-18 03:27:39.850 ,3,0,0.,4.8,0.,4.8,0.,4.8,0.,4.8
1979-07-18 03:27:44.650 ,3,0,0.,4.8,0.,4.8,0.,4.8,0.,4.8
1979-07-18 03:27:49.450 ,3,0,1.,4.8,0.,4.8,0.,4.8,1.,4.8
1979-07-18 03:27:54.250 ,3,0,1.,4.8,0.,4.8,0.,4.8,0.,4.8
1979-07-18 03:27:59.050 ,4,0,0.,4.8,0.,4.8,0.,4.8,0.,4.8
1979-07-18 03:28:03.850 ,4,0,0.,4.8,0.,4.8,0.,4.8,0.,4.8
1979-07-18 03:28:08.650 ,4,0,1.,4.8,0.,4.8,0.,4.8,0.,4.8
1979-07-18 03:28:13.450 ,4,0,0.,4.8,0.,4.8,0.,4.8,1.,4.8
1979-07-18 03:28:18.250 ,4,0,1.,4.8,0.,4.8,0.,4.8,0.,4.8
1979-07-18 03:28:23.050 ,4,0,2.,4.8,0.,4.8,0.,4.8,1.,4.8
1979-07-18 03:28:27.850 ,4,0,2.,4.8,0.,4.8,0.,4.8,0.,4.8
1979-07-18 03:28:32.650 ,4,0,1.,4.8,0.,4.8,0.,4.8,0.,4.8
1979-07-18 03:28:37.450 ,4,0,0.,4.8,0.,4.8,0.,4.8,0.,4.8
1979-07-18 03:28:42.250 ,4,0,2.,4.8,0.,4.8,0.,4.8,0.,4.8
1979-07-18 03:28:47.050 ,5,0,0.,4.8,0.,4.8,0.,4.8,0.,4.8
1979-07-18 03:28:51.850 ,5,0,0.,4.8,0.,4.8,0.,4.8,0.,4.8
1979-07-18 03:28:56.650 ,5,0,0.,4.8,0.,4.8,0.,4.8,0.,4.8
1979-07-18 03:29:01.450 ,5,0,1.,4.8,0.,4.8,0.,4.8,1.,4.8
1979-07-18 03:29:06.250 ,5,0,1.,4.8,0.,4.8,0.,4.8,0.,4.8
1979-07-18 03:29:11.050 ,5,0,1.,4.8,0.,4.8,0.,4.8,0.,4.8
1979-07-18 03:29:15.850 ,5,0,0.,4.8,0.,4.8,0.,4.8,0.,4.8
1979-07-18 03:29:20.650 ,5,0,1.,4.8,0.,4.8,0.,4.8,0.,4.8
1979-07-18 03:29:25.450 ,5,0,1.,4.8,0.,4.8,0.,4.8,0.,4.8
1979-07-18 03:29:30.250 ,5,0,1.,4.8,0.,4.8,0.,4.8,0.,4.8
1979-07-18 03:29:35.050 ,6,0,1.,4.8,0.,4.8,0.,4.8,0.,4.8
1979-07-18 03:29:39.850 ,6,0,1.,4.8,0.,4.8,0.,4.8,0.,4.8
1979-07-18 03:29:44.650 ,6,0,0.,4.8,0.,4.8,0.,4.8,0.,4.8
1979-07-18 03:29:49.450 ,6,0,0.,4.8,0.,4.8,0.,4.8,0.,4.8
1979-07-18 03:29:54.250 ,6,0,0.,4.8,0.,4.8,0.,4.8,1.,4.8
1979-07-18 03:29:59.050 ,6,0,0.,4.8,0.,4.8,0.,4.8,0.,4.8
1979-07-18 03:30:03.850 ,6,0,3.,4.8,0.,4.8,0.,4.8,0.,4.8
1979-07-18 03:30:08.650 ,6,0,2.,4.8,0.,4.8,0.,4.8,0.,4.8
1979-07-18 03:30:13.450 ,6,0,2.,4.8,0.,4.8,0.,4.8,0.,4.8
1979-07-18 03:30:18.250 ,6,0,0.,4.8,0.,4.8,0.,4.8,0.,4.8
1979-07-18 03:30:23.050 ,7,0,3.,4.8,0.,4.8,0.,4.8,0.,4.8
1979-07-18 03:30:27.850 ,7,0,0.,4.8,0.,4.8,0.,4.8,0.,4.8
1979-07-18 03:30:32.650 ,7,0,2.,4.8,0.,4.8,0.,4.8,0.,4.8
1979-07-18 03:30:37.450 ,7,0,0.,4.8,0.,4.8,0.,4.8,0.,4.8
1979-07-18 03:30:42.250 ,7,0,1.,4.8,0.,4.8,0.,4.8,0.,4.8
1979-07-18 03:30:47.050 ,7,0,0.,4.8,0.,4.8,0.,4.8,0.,4.8
1979-07-18 03:30:51.850 ,7,0,0.,4.8,0.,4.8,0.,4.8,0.,4.8
1979-07-18 03:30:56.650 ,7,0,1.,4.8,0.,4.8,0.,4.8,0.,4.8
1979-07-18 03:31:01.450 ,7,0,1.,4.8,0.,4.8,0.,4.8,0.,4.8
1979-07-18 03:31:06.250 ,7,0,1.,4.8,0.,4.8,0.,4.8,0.,4.8
1979-07-18 03:31:11.050 ,3,1,0.,4.8,0.,4.8,0.,4.8,0.,4.8
1979-07-18 03:31:15.850 ,3,1,1.,4.8,0.,4.8,0.,4.8,0.,4.8
1979-07-18 03:31:20.650 ,3,1,1.,4.8,0.,4.8,0.,4.8,0.,4.8
1979-07-18 03:31:25.450 ,3,1,0.,4.8,0.,4.8,0.,4.8,0.,4.8
1979-07-18 03:31:30.250 ,3,1,0.,4.8,0.,4.8,0.,4.8,0.,4.8
1979-07-18 03:31:35.050 ,0,1,0.,4.8,0.,4.8,0.,4.8,0.,4.8
1979-07-18 03:31:39.850 ,0,1,0.,4.8,0.,4.8,0.,4.8,0.,4.8
1979-07-18 03:31:44.650 ,0,1,0.,4.8,0.,4.8,0.,4.8,0.,4.8
1979-07-18 03:31:49.450 ,0,1,0.,4.8,0.,4.8,0.,4.8,0.,4.8
1979-07-18 03:31:54.250 ,0,1,2.,4.8,0.,4.8,0.,4.8,0.,4.8
1979-07-18 03:31:59.050 ,4,1,1.,4.8,0.,4.8,0.,4.8,0.,4.8
1979-07-18 03:32:03.850 ,4,1,0.,4.8,0.,4.8,0.,4.8,0.,4.8
1979-07-18 03:32:08.650 ,4,1,1.,4.8,0.,4.8,0.,4.8,0.,4.8
1979-07-18 03:32:13.450 ,4,1,1.,4.8,0.,4.8,0.,4.8,0.,4.8
1979-07-18 03:32:18.250 ,4,1,0.,4.8,0.,4.8,0.,4.8,0.,4.8
1979-07-18 03:32:23.050 ,7,1,2.,4.8,0.,4.8,0.,4.8,0.,4.8
1979-07-18 03:32:27.850 ,7,1,1.,4.8,0.,4.8,0.,4.8,1.,4.8
1979-07-18 03:32:32.650 ,7,1,2.,4.8,0.,4.8,0.,4.8,0.,4.8
1979-07-18 03:32:37.450 ,7,1,0.,4.8,0.,4.8,0.,4.8,0.,4.8
1979-07-18 03:32:42.250 ,7,1,1.,4.8,0.,4.8,0.,4.8,0.,4.8
1979-07-18 03:32:47.050 ,3,1,0.,4.8,0.,4.8,0.,4.8,0.,4.8
1979-07-18 03:32:51.850 ,3,1,0.,4.8,0.,4.8,0.,4.8,0.,4.8